www.pogodaiklimat.ru

Погода и климат >> Архив погоды >> Португалия >> Ангра-ду-Эроижму


ПОГОДА в Ангра-ду-Эроижму

  • Прогноз погоды в Ангра-ду-Эроижму
  • Монитор погоды в Ангра-ду-Эроижму

АРХИВ ПОГОДЫ в Ангра-ду-Эроижму

Время (UTC), дата Ветер
(напр.,м/с)
 
Видим.   Явления Облачность Т
(С)
Тd
(С)
f
(%)
Тe
(С)
Тes
(С)
Комфортность P
(гПа)
Po
(гПа)
Тmin
(С)
Tmax
(С)
R
(мм)
R24
(мм)
S
(см)
04 17.02 ЮЗ 3-5
{6}
н/о н/о +12.3 +6.0 65 +11 +11 1028.9 1017.9
05 17.02 штиль 0
{5}
н/о н/о +11.4 +3.7 59 +11 +11 1028.8 1017.8
06 17.02 штиль 0 н/о н/о +11.6 +5.0 64 +11 +11 1028.9 1017.9 +10.6
07 17.02 штиль 0 н/о н/о +11.2 +4.3 62 +11 +11 1029.4 1018.4
08 17.02 штиль 0 н/о н/о +10.3 +5.1 70 +10 +10 1029.4 1018.4
09 17.02 штиль 0 н/о н/о +11.2 +4.0 61 +11 +11 1030.3 1019.3
10 17.02 штиль 0 н/о н/о +11.3 +4.2 62 +11 +11 1031.0 1020.0
11 17.02 штиль 0 н/о н/о +13.4 +4.8 56 +13 +13 1031.2 1020.3
12 17.02 С 1-5
{10}
н/о н/о +14.9 +4.6 50 +16 +16 1031.5 1020.6
13 17.02 З 4-6
{8}
н/о н/о +14.4 +4.4 51 +13 +13 1031.7 1020.8
14 17.02 З 5-8
{8}
н/о н/о +14.5 +5.5 55 +13 +13 1031.7 1020.8
15 17.02 ЮЗ 4-9
{9}
н/о н/о +15.5 +5.1 50 +15 +15 1031.0 1020.1
16 17.02 -8
{9}
н/о н/о +14.9 +3.7 47 1030.7 1019.9
17 17.02
{7}
н/о н/о +14.6 +4.3 50 1030.8 1019.9
18 17.02 С 2
{6}
н/о н/о +13.5 +5.7 59 +13 +13 1030.8 1019.9 +15.7
19 17.02 З 3
{5}
н/о н/о +12.9 +6.0 63 +12 +12 1030.8 1019.9
20 17.02 З 4 н/о н/о +11.2 +6.3 72 +9 +9 1031.2 1020.1
21 17.02 СЗ 3
{6}
н/о н/о +10.8 +5.9 72 +9 +9 1031.7 1020.6
22 17.02 штиль 0 н/о н/о +10.8 +5.5 70 +10 +10 1031.5 1020.5
23 17.02 штиль 0 н/о н/о +10.6 +5.4 70 +10 +10 1031.7 1020.6
00 18.02 штиль 0 н/о н/о +11.3 +6.0 70 +11 +11 1031.7 1020.7
01 18.02 штиль 0 н/о н/о +11.1 +6.3 72 +11 +11 1031.0 1020.0
02 18.02 штиль 0 н/о н/о +11.7 +6.1 68 +11 +11 1030.5 1019.5
03 18.02 нст 3-6
{6}
н/о н/о +12.5 +5.6 63 1029.7 1018.8
04 18.02 ЮВ 4-7
{7}
н/о н/о +12.6 +5.8 63 +11 +11 1029.3 1018.4
05 18.02 ЮВ 5-9
{9}
н/о н/о +12.9 +5.9 62 +11 +11 1028.6 1017.7
06 18.02 ЮВ 5-8
{10}
н/о н/о +13.1 +6.6 65 +11 +11 1027.8 1016.9 +10.3
07 18.02 ЮВ 6-10
{10}
н/о н/о +13.1 +7.0 66 +11 +11 1027.7 1016.8
08 18.02 ЮВ 6-9
{10}
н/о н/о +13.4 +7.7 68 +11 +11 1027.1 1016.3
09 18.02 ЮВ 5-9
{9}
н/о н/о +13.7 +8.0 68 +12 +12 1027.1 1016.2
10 18.02 ЮВ 6-10
{10}
н/о н/о +14.1 +9.2 72 +12 +12 1026.9 1016.0
11 18.02 ЮВ 6-10
{11}
н/о н/о +14.9 +9.3 69 +13 +13 1026.6 1015.8
12 18.02 ЮВ 6-10
{10}
н/о н/о +14.7 +9.9 73 +13 +13 1026.2 1015.4
13 18.02 ЮВ 5-9
{10}
н/о н/о +15.1 +10.2 73 +14 +14 1025.8 1014.9
14 18.02 ЮВ 7-11
{11}
н/о н/о +14.8 +11.3 80 +13 +13 1024.7 1013.9
15 18.02 ЮВ 6-10
{12}
н/о н/о +15.1 +11.8 81 +13 +13 1023.5 1012.7
16 18.02 ЮВ 6-11
{12}
н/о н/о +15.3 +12.2 82 +14 +14 1022.6 1011.8
17 18.02 ЮВ 6-10
{11}
н/о н/о +15.3 +12.8 85 +14 +14 1022.0 1011.2
18 18.02 ЮВ 6-11
{12}
н/о н/о +15.5 +13.3 87 +14 +14 1021.2 1010.5 +15.6
19 18.02 ЮВ 6-10
{15}
н/о н/о +15.3 +13.2 87 +14 +14 1020.6 1009.9
20 18.02 ЮВ 7-11
{13}
н/о н/о +15.5 +13.6 88 +14 +14 1020.8 1010.0
21 18.02 ЮВ 5-10
{10}
н/о н/о +15.5 +13.3 87 +14 +14 1020.8 1010.1
22 18.02 В 4-8
{14}
н/о н/о +15.7 +13.7 88 +15 +15 1020.5 1009.8
23 18.02 ЮВ 4-8
{8}
н/о н/о +15.7 +14.1 90 +15 +15 1019.2 1008.4
00 19.02 ЮВ 8-13
{15}
н/о н/о +15.8 +14.1 90 +14 +14 1018.1 1007.4
01 19.02 ЮВ 7-13
{15}
н/о н/о +15.9 +15.6 98 +14 +14 1017.5 1006.8
02 19.02 ЮВ 9-15
{16}
н/о н/о +15.8 -29.4 3 +14 +14 1016.4 1005.7
03 19.02 ЮВ 8-14
{16}
н/о н/о +15.4 -29.7 3 +14 +14 1015.3 1004.6 0.1
04 19.02 ЮВ 10-16
{17}
н/о н/о +15.7 +14 +14 1014.2 1003.5 0.2
05 19.02 ЮВ 9-15
{15}
н/о н/о +15.6 +14 +14 1012.6 1002.0 1
06 19.02 ЮВ 9-15
{17}
н/о н/о +16.0 +14 +14 1011.5 1000.9 +15.2
07 19.02 ЮВ 7-13
{20}
н/о н/о +15.7 +14 +14 1011.5 1000.9 0.1
08 19.02 ЮВ 9-15
{15}
н/о н/о +15.7 -29.5 3 +14 +14 1010.4 999.8 2
09 19.02 ЮВ 9-13
{19}
н/о н/о +15.7 -28.4 3 +14 +14 1011.5 1000.9 4
10 19.02 Ю 4-8
{13}
н/о н/о +15.6 -29.6 3 +15 +15 1011.9 1001.3
11 19.02 Ю 6-10
{10}
н/о н/о +16.2 +15 +15 1011.9 1001.3
12 19.02 Ю 3-6
{9}
н/о н/о +15.9 -29.3 3 +16 +16 1011.9 1001.3 0.1
13 19.02
{8}
н/о н/о +16.2 1011.7 1001.1
14 19.02 ЮВ 6
{9}
н/о н/о +16.4 +16 +16 1010.8 1000.2
15 19.02 ЮВ 4-7
{8}
н/о н/о +16.8 +16 +16 1009.5 999.0
16 19.02 Ю 3-6
{8}
н/о н/о +17.4 -28.3 3 +17 +17 1008.8 998.3
17 19.02 Ю 4-8
{8}
н/о н/о +16.4 +16 +16 1008.5 997.9
18 19.02 Ю 5-8
{9}
н/о н/о +16.1 -29.2 3 +15 +15 1007.9 997.3 +17.5
19 19.02 Ю 5-7
{8}
н/о н/о +15.9 +15 +15 1007.4 996.8
20 19.02 ЮВ 4-6
{6}
н/о н/о +16.0 -29.3 3 +16 +16 1007.2 996.6
21 19.02 ЮВ 6-10
{10}
н/о н/о +16.3 +15 +15 1006.2 995.7 0.1
22 19.02 ЮВ 6-10
{10}
н/о н/о +16.4 -29.0 3 +15 +15 1005.4 994.8
23 19.02 ЮВ 8-13
{14}
н/о н/о +16.4 +15 +15 1004.4 993.8
00 20.02 ЮВ 10-15
{15}
н/о н/о +16.5 -28.9 3 +15 +15 1003.0 992.4 1
01 20.02 ЮВ 8-13
{16}
н/о н/о +16.6 +15 +15 1002.4 991.9 0.1
02 20.02 ЮВ 9-15
{15}
н/о н/о +16.5 -28.9 3 +15 +15 1000.7 990.2 0.4
03 20.02 ЮВ 12-18
{18}
н/о н/о +16.8 -27.7 3 +15 +15 998.9 988.4
04 20.02 ЮВ 11
{20}
н/о н/о +16.6 -28.9 3 +15 +15 998.4 987.9 0.1
05 20.02 ЮВ 8-15
{16}
н/о н/о +16.7 +16 +16 997.7 987.2 0.1
06 20.02 ЮВ 9-15
{17}
н/о н/о +16.8 +15 +15 995.5 985.1 +15.8 0.5
07 20.02 ЮВ 11-18
{19}
н/о н/о +17.0 +15 +15 994.5 984.1 0.1
08 20.02 Ю 7-12
{20}
н/о н/о +13.1 +11 +11 995.9 985.3 4
09 20.02 Ю 8-16
{16}
н/о н/о +12.3 +10 +10 998.0 987.4 5
10 20.02 Ю 4-7
{14}
н/о н/о +12.1 -31.4 3 +11 +11 999.0 988.4 2
11 20.02 ЮВ 4-8
{9}
н/о н/о +12.3 +11 +11 998.3 987.7 3
12 20.02 ЮВ 6-10
{11}
н/о н/о +12.6 +11 +11 999.3 988.7 3
13 20.02 ЮВ 6-12
{13}
н/о н/о +13.7 +12 +12 998.9 988.3 0.5
14 20.02 ЮВ 6-10
{12}
н/о н/о +13.8 +12 +12 998.3 987.7 3
15 20.02 ЮВ 6-11
{16}
н/о н/о +13.7 +12 +12 997.6 987.0
16 20.02 Ю 6-10
{15}
н/о н/о +13.9 +9.0 72 +12 +12 998.1 987.5
17 20.02 Ю 6-12
{12}
н/о н/о +14.1 +8.8 70 +12 +12 997.8 987.3
18 20.02 Ю 4-7
{12}
н/о н/о +12.6 +9.2 80 +11 +11 998.2 987.6 +17.2
19 20.02 Ю 4-7
{8}
н/о н/о +13.5 +9.9 79 +12 +12 998.2 987.6
20 20.02 штиль 0
{7}
н/о н/о +13.0 +10.0 82 +13 +13 998.1 987.5
21 20.02 штиль 0
{6}
н/о н/о +11.7 +10.1 90 +11 +11 997.6 987.0 13
22 20.02 штиль 0
{5}
н/о н/о +12.2 +10.3 88 +12 +12 997.8 987.2
23 20.02 ЮВ 4-7
{8}
н/о н/о +13.5 +8.4 71 +12 +12 997.5 986.9
00 21.02 ЮВ 3-6
{7}
н/о н/о +13.2 +8.6 74 +12 +12 996.3 985.7
01 21.02 ЮВ 4-7
{8}
н/о н/о +13.9 +9.0 72 +12 +12 996.0 985.4
02 21.02 В 4-7
{9}
н/о н/о +13.7 +9.5 76 +12 +12 994.7 984.2
03 21.02 В 7-11
{12}
н/о н/о +12.6 +10.8 89 +10 +10 993.1 982.5
04 21.02 В 6-11
{11}
н/о н/о +13.1 +10.2 83 +11 +11 992.5 981.9
05 21.02 Ю 7-12
{19}
н/о н/о +11.9 +9.4 85 +9 +9 991.6 981.1 2
06 21.02 Ю 8-15
{16}
н/о н/о +12.8 +9.3 79 +10 +10 991.4 980.8 +11.6
07 21.02 ЮЗ 3-8
{17}
н/о н/о +10.4 +9.0 91 +8 +8 992.0 981.4 0.9
08 21.02 Ю 7-12
{15}
н/о н/о +11.5 +6.5 71 +8 +8 993.7 983.1
09 21.02 ЮЗ 5-9
{16}
н/о н/о +10.5 +7.6 82 +8 +8 994.3 983.7
10 21.02 Ю 4-7
{9}
н/о н/о +12.1 +7.5 73 +10 +10 995.9 985.3
11 21.02 ЮВ 6-10
{10}
н/о н/о +13.3 +7.0 66 +11 +11 996.1 985.5
12 21.02 В 6-10
{10}
н/о н/о +12.7 +8.7 77 +10 +10 995.9 985.3
13 21.02 ЮВ 7-12
{21}
н/о н/о +12.6 +9.3 80 +10 +10 996.3 985.7 6
14 21.02 ЮВ 13 н/о н/о +13.8 +8.5 70 +11 +11 995.5 984.9
15 21.02 ЮВ 11
{19}
н/о н/о +13.9 +8.0 68 +11 +11 994.8 984.3 0.3
16 21.02 ЮВ 11
{17}
н/о н/о +13.6 +8.4 71 +11 +11 995.9 985.3
17 21.02 ЮВ 11 н/о н/о +13.8 +8.7 71 +11 +11 995.7 985.2
18 21.02 ЮВ 9
{16}
н/о н/о +13.9 +7.3 64 +11 +11 995.2 984.7 +14.5
19 21.02 ЮВ 6-10
{13}
н/о н/о +13.3 +8.1 71 +11 +11 994.9 984.4
20 21.02 ЮВ 8-12
{12}
н/о н/о +13.4 +9.5 77 +11 +11 995.2 984.6
21 21.02 Ю 6-10
{19}
н/о н/о +10.7 +9.4 92 +7 +7 996.1 985.4 8
22 21.02 Ю 4-8
{10}
н/о н/о +11.5 +8.6 82 +9 +9 996.2 985.5
23 21.02 ЮВ 7-12
{14}
н/о н/о +12.4 +8.9 79 +10 +10 996.1 985.5
00 22.02 ЮВ 6-9
{11}
н/о н/о +12.0 +9.4 84 +9 +9 995.4 984.8
01 22.02 Ю 6-11
{15}
н/о н/о +11.1 +8.6 85 +8 +8 996.2 985.6 0.1
02 22.02 Ю 7-11
{12}
н/о н/о +8.8 +7.7 93 +4 +4 996.6 985.8 2
03 22.02 Ю 6-10
{10}
н/о н/о +9.4 +6.7 83 +6 +6 996.6 985.9 0.1
04 22.02 Ю 8-15
{15}
н/о н/о +9.7 +6.0 78 +6 +6 997.3 986.6
05 22.02 Ю 5-11
{12}
н/о н/о +10.4 +5.0 69 +8 +8 997.0 986.3
06 22.02 Ю 7-13
{13}
н/о н/о +11.0 +4.9 66 +8 +8 997.1 986.4 +8.7
07 22.02 Ю 9-15
{15}
н/о н/о +10.6 +2.6 58 +7 +7 998.0 987.3
08 22.02 Ю 8-14
{14}
н/о н/о +10.0 +1.6 56 +6 +6 1000.1 989.4
09 22.02 Ю 8-14
{14}
н/о н/о +10.7 +2.5 57 +7 +7 1001.5 990.7
10 22.02 Ю 6-12
{18}
н/о н/о +10.6 +5.2 69 +8 +8 1003.2 992.4
11 22.02 Ю 5-9
{16}
н/о н/о +8.5 +6.8 89 +5 +5 1004.3 993.5 1
12 22.02 Ю 6-9
{16}
н/о н/о +8.5 +6.4 87 +4 +4 1005.7 994.8 0.3
13 22.02 Ю 7-12
{12}
н/о н/о +12.0 +6.4 69 +9 +9 1006.2 995.4
14 22.02 Ю 7-11
{13}
н/о н/о +12.9 +6.4 65 +10 +10 1006.6 995.9
15 22.02 Ю 7-12
{13}
н/о н/о +13.3 +5.3 58 +11 +11 1007.3 996.6
16 22.02 Ю 6-11
{14}
н/о н/о +13.5 +6.4 62 +11 +11 1007.6 997.0
17 22.02 Ю 8-13
{15}
н/о н/о +13.4 +5.5 59 +11 +11 1008.8 998.1
18 22.02 Ю 8-14
{14}
н/о н/о +10.6 +7.7 82 +7 +7 1010.0 999.2 +13.9 0.1
19 22.02 ЮВ 7 н/о н/о +12.3 +7.3 72 +9 +9 1010.3 999.5
20 22.02 ЮВ 5-8
{12}
н/о н/о +12.3 +8.4 77 +10 +10 1010.9 1000.2
21 22.02 ЮВ 6-11
{12}
н/о н/о +12.5 +8.4 76 +10 +10 1011.2 1000.4 2
22 22.02 В 7-12
{13}
н/о н/о +13.1 +7.9 71 +11 +11 1010.9 1000.1
23 22.02 В 6-10
{12}
н/о н/о +13.3 +8.4 72 +11 +11 1011.1 1000.3
00 23.02 В 9-16
{16}
н/о н/о +11.7 +9.3 85 +8 +8 1011.1 1000.3 0.1
01 23.02 В 8-14
{18}
н/о н/о +13.2 +8.7 74 +10 +10 1010.3 999.6
02 23.02 В 9-16
{17}
н/о н/о +13.5 +9.4 76 +11 +11 1009.5 998.8
03 23.02 В 11-20
{20}
н/о н/о +12.9 +11.1 89 +9 +9 1009.0 998.3 0.9
04 23.02 В 10-18
{19}
н/о н/о +13.3 +10.7 84 +10 +10 1007.3 996.6 0.7
05 23.02 В 14-22
{22}
н/о н/о +13.5 +9.9 79 +10 +10 1005.1 994.5 1
06 23.02 В 12-18
{22}
н/о н/о +14.0 +11.5 85 +11 +11 1003.8 993.2 +10.6 0.1
07 23.02 В 15-23
{25}
н/о н/о +14.8 +11.5 81 +12 +12 1003.2 992.6
08 23.02 В 12-23
{26}
н/о н/о +14.7 +12.7 88 +12 +12 1002.1 991.5 1
09 23.02 В 15-25
{25}
н/о н/о +14.7 +13.6 93 +11 +11 1001.0 990.4 3
10 23.02 В 14-25
{26}
н/о н/о +15.0 -30.0 3 +13 +13 1000.3 989.7 3
11 23.02 В 14-23
{27}
н/о н/о +14.6 +12 +12 1001.6 991.0 7
12 23.02 ЮВ 9-15
{26}
н/о н/о +14.5 -29.3 3 +13 +13 1000.7 990.1 32
13 23.02 ЮВ 10-16
{16}
н/о н/о +15.3 -29.8 3 +13 +13 1000.9 990.4 0.1
14 23.02 Ю 9-15
{19}
н/о н/о +15.6 +14 +14 1001.5 991.0 0.3
15 23.02 ЮВ 11-18
{18}
н/о н/о +15.4 +10.7 74 +13 +13 1001.6 991.1
16 23.02 Ю 9-16
{16}
н/о н/о +15.9 +9.3 65 +14 +14 1001.9 991.4
17 23.02 Ю 8-15
{17}
н/о н/о +15.6 +10.3 71 +14 +14 1002.6 992.1
18 23.02 Ю 9-17
{17}
н/о н/о +15.0 +9.9 72 +13 +13 1003.6 993.1 +16.3
19 23.02 Ю 8-14
{15}
н/о н/о +14.4 +9.7 73 +12 +12 1004.4 993.8
21 23.02 Ю 7-12
{14}
н/о н/о +14.1 +8.6 69 +12 +12 1006.6 996.0 42
22 23.02 ЮВ 7-11
{13}
н/о н/о +14.2 +9.3 72 +12 +12 1007.6 996.9
23 23.02 ЮВ 8-13
{15}
н/о н/о +14.3 +8.9 70 +12 +12 1008.4 997.8
00 24.02 ЮВ 8
{14}
н/о н/о +14.2 +8.1 67 +12 +12 1008.7 998.0
02 24.02 ЮВ 5-10
{15}
н/о н/о +13.6 +10.1 79 +12 +12 1009.6 998.9 0.4

 

Местоположение метеостанции Ангра-ду-Эроижму (Португалия): широта 38.67 долгота -27.21 высота над уровнем моря 76 м.

В архиве по умолчанию представлена погода в Ангра-ду-Эроижму за последнюю неделю. Архивные данные за месяц целиком и за предыдущие месяцы, начиная с января 2011 года, Вы можете получить, выбрав интересующий диапазон дат из раскрывающегося списка и нажав кнопку "Ввод!".


*Определитесь, кто Вы:
робот инопланетянин человек

Внимание! Время в таблицах - всемирное. Для получения местного времени необходимо прибавить поправку, которая равна 0 ч.

Смотрите также архив погоды в соседних городах и на ближайших метеорологических станциях:

Погода в Аэропорту Лажеша (Португалия) (15 км)
Погода на Острове Грасьоса (Португалия) (84 км)
Погода в Орте (Португалия) (125 км)
Погода в Каштелу-Бранку (Португалия) (131 км)
Погода в Понта-Делгаде (Португалия) (168 км)
Погода в Санта-Марии (Португалия) (261 км)
Погода на Флошише (Португалия) (349 км)
Погода в Финшале (Португалия) (1148 км)
Погода в Санта-Катарине (Португалия) (1154 км)
Погода на Порту-Санту (Португалия) (1159 км)

Пояснения к столбцам:

Ветер - указаны скорость ветра в м/с - средняя за 10 мин, порывы в срок и между сроками (в фигурных скобках) и направление, откуда дует ветер: С - северный, СВ - северо-восточный, В - восточный, ЮВ - юго-восточный, Ю - южный, ЮЗ - юго-западный, З - западный, СЗ - северо-западный.
Видимость - горизонтальная дальность видимости в метрах или километрах. При видимости от 1 до 10 км при отсутствии осадков обычно наблюдается дымка, при ухудшении видимости до 1 км и менее - туман. В сухую погоду видимость может ухудшаться дымом, пылью или мглою.
Явления - указаны атмосферные явления, наблюдавшиеся в срок или в последний час перед сроком; фигурными скобками обозначены явления, наблюдавшиеся между сроками (за 1-3 часа до срока); квадратными скобками обозначены град или гололедные отложения с указанием их диаметра в мм.
Облачность - указаны через наклонную черту общая и нижняя облачность в баллах и высота нижней границы облаков в метрах; квадратными скобками обозначены формы облаков: Ci - перистые, Cs - перисто-слоистые, Cc - перисто-кучевые, Ac - высококучевые, As - высокослоистые, Sc - слоисто-кучевые, Ns - слоисто-дождевые, Cu - кучевые, Cb - кучево-дождевые. Подробнее классификацию облаков см. в Атласе облаков (PDF).
T - Температура воздуха - температура, измеренная на высоте 2 м над землей.
Td - Температура точки росы - температура, при понижении до которой содержащийся в воздухе водяной пар достигнет насыщения.
f - Относительная влажность воздуха - влажноcть воздуха, измеренная на высоте 2 м над землей.
Te - Эффективная температура - температура, которую ощущает одетый по сезону человек в тени. Характеристика душности погоды. При расчете учитывается влияние влажности воздуха и скорости ветра на теплоощущения человека.
Tes - Эффективная температура на солнце - температура, которую ощущает человек, с поправкой на солнечный нагрев. Характеристика знойности погоды. Зависит от высоты солнца над горизонтом, облачности и скорости ветра. Ночью, в пасмурную погоду, а также при ветре 12 м/с и более поправка равна нулю.
P - Атмосферное давление - приведенное к уровню моря атмосферное давление.
Po - Атмосферное давление - измеренное на уровне метеостанции атмосферное давление.
Tmin - Минимальная температура - минимум температуры воздуха на высоте 2 м над землей.
Tmax - Максимальная температура - максимум температуры воздуха на высоте 2 м над землей.
R - Количество осадков - Количество выпавших осадков за период времени, мм. При наведении курсора мыши на число - период времени, за который выпало указанное количество осадков.
R24 - Количество осадков - Количество выпавших осадков за 24 часа, мм.
S - Снежный покров - Высота снежного покрова, см. При наведении курсора мыши на число - состояние снежного покрова и степень покрытия местности в баллах.